KD7KCN-5 Weather Reports


Display with metric or nautical units.
time (UTC)temp
F
wind
direction
speed
MPH
gust
MPH
rain 1hr
in
rain 24hr
in
rain mn
in
humidity
%
barometer
mb
20260906202528 70 150 30.0 46.0 0.00 0.00 0.00 55 1016.8
20260906200529 69 143 26.0 44.0 0.00 0.00 0.00 55 1016.6
20260906195529 70 155 20.0 36.0 0.00 0.00 0.00 54 1018.3
20260906194530 70 133 20.0 37.0 0.00 0.00 0.00 54 1018.3
20260906193530 70 144 24.0 35.0 0.00 0.00 0.00 55 1018.3
20260906192529 70 143 25.0 35.0 0.00 0.00 0.00 54 1018.1
20260906191530 70 147 23.0 35.0 0.00 0.00 0.00 51 1018.6
20260906190529 71 138 19.0 35.0 0.00 0.00 0.00 50 1018.7
20260906185529 70 171 16.0 35.0 0.00 0.00 0.00 49 1018.5
20260906184529 71 142 22.0 32.0 0.00 0.00 0.00 47 1018.7
20260906183529 72 139 22.0 33.0 0.00 0.00 0.00 45 1018.7
20260906182529 72 142 18.0 31.0 0.00 0.00 0.00 44 1019.1
20260906181529 72 147 17.0 31.0 0.00 0.00 0.00 43 1018.9
20260906180529 73 142 11.0 28.0 0.00 0.00 0.00 43 1018.7
20260906175531 72 146 22.0 30.0 0.00 0.00 0.00 43 1018.5
20260906174529 72 148 22.0 31.0 0.00 0.00 0.00 42 1018.9
20260906173529 71 143 15.0 32.0 0.00 0.00 0.00 44 1019.0
20260906172530 71 139 19.0 27.0 0.00 0.00 0.00 45 1019.3
20260906170529 71 154 16.0 31.0 0.00 0.00 0.00 45 1019.3
20260906165529 71 140 17.0 28.0 0.00 0.00 0.00 44 1019.1
20260906164529 72 136 23.0 33.0 0.00 0.00 0.00 43 1018.7
20260906163529 73 133 18.0 32.0 0.00 0.00 0.00 43 1018.8
20260906162529 71 143 17.0 28.0 0.00 0.00 0.00 44 1018.8
20260906161529 72 127 17.0 27.0 0.00 0.00 0.00 44 1018.5
20260906160530 72 133 18.0 25.0 0.00 0.00 0.00 43 1018.7
20260906155529 72 120 15.0 25.0 0.00 0.00 0.00 43 1018.7
20260906154531 73 184 19.0 27.0 0.00 0.00 0.00 41 1018.6
20260906153530 72 139 11.0 29.0 0.00 0.00 0.00 43 1018.0
20260906152529 72 144 12.0 28.0 0.00 0.00 0.00 43 1018.1
20260906151531 71 159 12.0 20.0 0.00 0.00 0.00 44 1018.1
20260906150529 71 134 9.0 17.0 0.00 0.00 0.00 44 1018.2
20260906145529 70 133 8.0 20.0 0.00 0.00 0.00 45 1018.3
20260906144529 69 140 9.0 21.0 0.00 0.00 0.00 46 1018.3
20260906143531 67 153 5.0 24.0 0.00 0.00 0.00 48 1018.3
20260906142531 67 175 10.0 17.0 0.00 0.00 0.00 49 1018.3
20260906141529 66 171 10.0 14.0 0.00 0.00 0.00 49 1018.1
20260906140529 66 141 6.0 9.0 0.00 0.00 0.00 49 1018.1
20260906135529 66 152 6.0 14.0 0.00 0.00 0.00 49 1018.0
20260906134530 66 148 9.0 13.0 0.00 0.00 0.00 48 1017.9
20260906133529 66 140 8.0 13.0 0.00 0.00 0.00 48 1017.9
20260906132530 66 154 7.0 15.0 0.00 0.00 0.00 48 1017.9
20260906131529 66 158 9.0 12.0 0.00 0.00 0.00 49 1017.8
20260906130531 65 148 5.0 9.0 0.00 0.00 0.00 48 1017.7
20260906125530 66 142 7.0 12.0 0.00 0.00 0.00 48 1017.7
20260906124532 66 143 8.0 10.0 0.00 0.00 0.00 47 1017.8
20260906123530 66 145 5.0 11.0 0.00 0.00 0.00 46 1017.9
20260906122534 66 154 7.0 11.0 0.00 0.00 0.00 45 1017.9
20260906121531 66 157 7.0 13.0 0.00 0.00 0.00 46 1017.9
20260906120530 66 136 7.0 10.0 0.00 0.00 0.00 46 1017.9
20260906115530 66 146 5.0 10.0 0.00 0.00 0.00 45 1017.9
20260906113530 67 152 6.0 9.0 0.00 0.00 0.00 44 1017.9
20260906112530 67 153 4.0 8.0 0.00 0.00 0.00 44 1017.9
20260906111532 66 153 3.0 7.0 0.00 0.00 0.00 40 1017.8
20260906110531 67 157 1.0 7.0 0.00 0.00 0.00 40 1017.8
20260906105531 67 158 5.0 9.0 0.00 0.00 0.00 42 1017.9
20260906104530 67 162 5.0 7.0 0.00 0.00 0.00 39 1017.9
20260906103531 67 150 4.0 7.0 0.00 0.00 0.00 40 1017.7
20260906102531 67 127 4.0 5.0 0.00 0.00 0.00 39 1017.8
20260906101530 67 127 4.0 7.0 0.00 0.00 0.00 37 1017.7
20260906100530 68 148 6.0 8.0 0.00 0.00 0.00 38 1017.6
20260906095530 68 164 5.0 10.0 0.00 0.00 0.00 38 1017.6
20260906094530 68 167 7.0 9.0 0.00 0.00 0.00 37 1017.6
20260906093530 67 153 6.0 8.0 0.00 0.00 0.00 36 1017.6
20260906092533 67 143 2.0 4.0 0.00 0.00 0.00 34 1017.7
20260906091530 68 143 2.0 5.0 0.00 0.00 0.00 33 1017.7
20260906090530 69 167 5.0 12.0 0.00 0.00 0.00 34 1017.8
20260906085533 68 158 5.0 8.0 0.00 0.00 0.00 34 1017.8
20260906084530 68 137 3.0 6.0 0.00 0.00 0.00 33 1017.8
20260906083530 68 115 3.0 7.0 0.00 0.00 0.00 33 1017.9
20260906082530 68 125 1.0 5.0 0.00 0.00 0.00 33 1018.0
20260906081530 68 0 0.0 1.0 0.00 0.00 0.00 32 1018.1
20260906080530 69 0 0.0 4.0 0.00 0.00 0.00 32 1018.1
20260906075532 69 0 0.0 3.0 0.00 0.00 0.00 1018.1
20260906074531 69 0 0.0 2.0 0.00 0.00 0.00 32 1018.0
20260906073530 69 116 2.0 3.0 0.00 0.00 0.00 31 1018.0
20260906072531 69 0 0.0 4.0 0.00 0.00 0.00 31 1018.0
20260906071530 70 114 1.0 12.0 0.00 0.00 0.00 31 1018.0
20260906070533 70 129 3.0 8.0 0.00 0.00 0.00 30 1018.0
20260906065532 70 130 4.0 13.0 0.00 0.00 0.00 31 1018.0
20260906064532 71 156 3.0 11.0 0.00 0.00 0.00 30 1018.1
20260906063532 71 152 5.0 8.0 0.00 0.00 0.00 30 1018.0
20260906062530 70 123 2.0 7.0 0.00 0.00 0.00 30 1018.0
20260906061531 70 120 4.0 7.0 0.00 0.00 0.00 30 1017.8
20260906060530 70 128 3.0 8.0 0.00 0.00 0.00 29 1017.9
20260906055533 71 123 3.0 10.0 0.00 0.00 0.00 28 1017.9
20260906054530 72 127 4.0 8.0 0.00 0.00 0.00 27 1017.7
20260906052531 72 153 5.0 12.0 0.00 0.00 0.00 27 1017.8
20260906051532 72 164 3.0 9.0 0.00 0.00 0.00 27 1017.7
20260906050530 72 167 8.0 14.0 0.00 0.00 0.00 27 1017.8
20260906045531 72 143 5.0 9.0 0.00 0.00 0.00 27 1017.8
20260906044531 73 171 6.0 10.0 0.00 0.00 0.00 27 1017.9
20260906043531 73 147 2.0 8.0 0.00 0.00 0.00 27 1017.8
20260906042531 73 156 5.0 10.0 0.00 0.00 0.00 27 1017.8
20260906041531 73 148 6.0 10.0 0.00 0.00 0.00 27 1017.8
20260906040530 72 150 5.0 9.0 0.00 0.00 0.00 28 1017.7
20260906035531 73 131 3.0 8.0 0.00 0.00 0.00 28 1017.6
20260906034531 73 112 2.0 13.0 0.00 0.00 0.00 28 1017.6
20260906033532 74 170 6.0 11.0 0.00 0.00 0.00 27 1017.3
20260906031534 74 206 6.0 18.0 0.00 0.00 0.00 27 1017.1
20260906030531 74 155 4.0 15.0 0.00 0.00 0.00 27 1017.0
20260906025531 75 136 6.0 16.0 0.00 0.00 0.00 27 1017.0
20260906024531 75 140 9.0 18.0 0.00 0.00 0.00 26 1016.9
20260906023532 75 193 7.0 21.0 0.00 0.00 0.00 26 1016.8
20260906021531 75 132 5.0 11.0 0.00 0.00 0.00 25 1016.5
20260906020533 76 109 6.0 12.0 0.00 0.00 0.00 24 1016.6
20260906015534 76 140 9.0 14.0 0.00 0.00 0.00 23 1016.6
20260906014531 77 112 7.0 20.0 0.00 0.00 0.00 22 1016.6
20260906013532 77 149 14.0 25.0 0.00 0.00 0.00 21 1016.6
20260906012533 77 153 9.0 19.0 0.00 0.00 0.00 21 1016.6
20260906011532 77 158 16.0 27.0 0.00 0.00 0.00 21 1016.7
20260906010531 77 125 5.0 27.0 0.00 0.00 0.00 20 1016.6
20260906005531 78 158 17.0 33.0 0.00 0.00 0.00 20 1016.6
20260906004533 78 155 16.0 30.0 0.00 0.00 0.00 20 1016.6
20260906003534 78 154 13.0 35.0 0.00 0.00 0.00 19 1016.5
20260906002531 79 160 15.0 32.0 0.00 0.00 0.00 19 1015.7
20260906001532 79 158 18.0 37.0 0.00 0.00 0.00 18 1015.6
20260906000533 79 142 17.0 34.0 0.00 0.00 0.00 18 1015.7
20260905235535 80 142 16.0 31.0 0.00 0.00 0.00 18 1015.8
20260905234533 80 142 21.0 33.0 0.00 0.00 0.00 18 1015.5
20260905233533 79 135 13.0 30.0 0.00 0.00 0.00 18 1015.6
20260905232531 80 136 20.0 32.0 0.00 0.00 0.00 16 1015.7
20260905231532 82 138 12.0 24.0 0.00 0.00 0.00 14 1015.6
20260905230532 81 146 9.0 23.0 0.00 0.00 0.00 15 1015.8
20260905225531 81 207 7.0 36.0 0.00 0.00 0.00 15 1015.8
20260905224532 81 133 10.0 31.0 0.00 0.00 0.00 15 1016.0
20260905223531 80 144 22.0 33.0 0.00 0.00 0.00 15 1015.9
20260905222531 80 159 17.0 27.0 0.00 0.00 0.00 14 1016.0
20260905221532 80 154 21.0 37.0 0.00 0.00 0.00 14 1016.1
20260905220532 80 132 16.0 39.0 0.00 0.00 0.00 14 1016.0
20260905215531 80 130 16.0 34.0 0.00 0.00 0.00 15 1016.2
20260905214534 80 142 20.0 36.0 0.00 0.00 0.00 14 1016.3
20260905213531 80 142 18.0 38.0 0.00 0.00 0.00 13 1016.5
20260905212531 79 136 15.0 38.0 0.00 0.00 0.00 14 1016.4
20260905211531 80 130 14.0 27.0 0.00 0.00 0.00 14 1016.6
20260905210532 80 135 19.0 35.0 0.00 0.00 0.00 13 1016.6
20260905205532 80 141 14.0 32.0 0.00 0.00 0.00 15 1016.7
20260905204532 80 145 20.0 30.0 0.00 0.00 0.00 14 1016.8
20260905203532 79 187 21.0 38.0 0.00 0.00 0.00 15 1016.8